[[{"header":{"parameterUnit":"m.s-1","parameterCategory":1,"la1":30.2992,"la2":30.254,"lo1":-89.0895,"lo2":-89.0443,"dy":0.0025,"dx":0.0025,"nx":19,"ny":19,"refTime":"2026-04-25T03:00:00:Z","depth":0,"parameterNumber":2,"parameterNumberName":"U-component_of_WINDS"},"data":[0,0,0,-2.3982,-2.3984,-2.4085,-2.4085,-2.4208,-2.4209,0,0,0,0,0,0,0,0,0,0,0,-2.3946,-2.3946,-2.3982,-2.3984,-2.4084,-2.4085,-2.4207,-2.4209,0,0,0,0,0,0,0,0,0,0,0,-2.3946,-2.3946,-2.3947,-2.3985,-2.4084,-2.4085,-2.4207,-2.4134,0,0,0,0,0,0,0,0,0,0,-2.4038,-2.3997,-2.3946,-2.3947,-2.3985,-2.4084,-2.4085,-2.4131,-2.4139,-2.4159,0,-2.4171,0,-2.4192,-2.4216,-2.4216,0,0,0,-2.399,-2.399,-2.4023,-2.3947,-2.3986,-2.4084,-2.4041,-2.4135,-2.4144,-2.4169,-2.4173,-2.4178,-2.4194,-2.4217,-2.4217,-2.4304,-2.4304,0,0,-2.3985,-2.3961,-2.4017,-2.4029,-2.4009,-2.4038,-2.4044,-2.4141,-2.4145,-2.4174,-2.4181,-2.4196,-2.4218,-2.4218,-2.4304,-2.4304,0,0,0,-2.3965,-2.3957,-2.3987,-2.4023,-2.4042,-2.404,-2.4048,-2.4141,-2.4153,-2.4183,-2.4197,-2.4218,-2.422,-2.4304,-2.4304,-2.4285,0,0,0,-2.3962,-2.3945,-2.3985,-2.3971,-2.4039,-2.4092,-2.4045,-2.4146,-2.4158,-2.4196,-2.4218,-2.4221,-2.4304,-2.4304,-2.4286,-2.4281,0,0,0,-2.3942,-2.3943,-2.3955,-2.397,-2.4012,-2.4091,-2.4108,-2.4149,-2.4166,-2.4217,-2.4221,-2.4304,-2.4304,-2.4286,-2.4281,-2.4296,0,0,0,-2.3914,-2.3938,-2.3954,-2.3987,-2.4011,-2.4078,-2.4108,-2.416,-2.4201,-2.4219,-2.4304,-2.4304,-2.4286,-2.4281,-2.4296,-2.4303,-2.4304,0,0,-2.3932,-2.394,-2.3961,-2.3978,-2.4036,-2.4064,-2.4121,-2.4183,-2.4211,-2.4272,-2.4275,-2.4286,-2.4281,-2.4296,-2.4318,-2.4318,0,0,0,-2.3959,-2.3974,-2.3995,-2.403,-2.4076,-2.4116,-2.4171,-2.4194,-2.4247,-2.4236,-2.4296,-2.4294,-2.4304,-2.4309,-2.4309,-2.4319,-2.4305,-2.4305,-2.4305,-2.395,-2.3982,-2.402,-2.4065,-2.41,-2.4156,-2.4189,-2.423,-2.4255,-2.4269,-2.4287,-2.4295,-2.43,-2.43,-2.431,-2.4294,-2.4294,-2.4294,-2.4294,-2.3978,-2.4004,-2.4035,-2.4082,-2.4118,-2.416,-2.4217,-2.4233,-2.4279,-2.4285,-2.4295,-2.4298,-2.4299,-2.431,-2.4293,-2.4293,-2.4293,-2.4293,-2.4293,-2.3975,-2.3993,-2.4019,-2.4074,-2.4114,-2.4161,-2.4202,-2.4235,-2.4266,-2.4276,-2.4299,-2.4299,-2.4303,-2.4285,-2.4285,-2.4285,-2.4285,-2.4285,-2.4285,-2.3961,-2.399,-2.402,-2.407,-2.4097,-2.4138,-2.4196,-2.4225,-2.4266,-2.4287,-2.4287,-2.4311,-2.4293,-2.4288,-2.4285,-2.4285,-2.4285,-2.4285,-2.4285,-2.3976,-2.3977,-2.4022,-2.4049,-2.4112,-2.415,-2.419,-2.4247,-2.4276,-2.4296,-2.4319,-2.43,-2.4312,-2.4312,-2.4307,-2.4311,-2.4311,-2.4311,-2.4311,-2.3972,-2.3981,-2.4034,-2.4075,-2.412,-2.4161,-2.4214,-2.426,-2.4309,-2.4329,-2.4334,-2.4332,-2.433,-2.4343,-2.4342,-2.4338,-2.4349,-2.4349,-2.435,-2.3983,-2.3998,-2.4034,-2.4078,-2.413,-2.4174,-2.4225,-2.4274,-2.433,-2.4352,-2.4347,-2.4345,-2.4341,-2.4338,-2.4358,-2.4356,-2.435,0,0]},{"header":{"parameterUnit":"m.s-1","parameterCategory":1,"la1":30.2992,"la2":30.254,"lo1":-89.0895,"lo2":-89.0443,"dy":0.0025,"dx":0.0025,"nx":19,"ny":19,"refTime":"2026-04-25T03:00:00:Z","depth":0,"parameterNumber":3,"parameterNumberName":"V-component_of_WINDS"},"data":[0,0,0,5.8008,5.8008,5.7979,5.7978,5.7949,5.7949,0,0,0,0,0,0,0,0,0,0,0,5.8023,5.8023,5.8008,5.8008,5.7979,5.7978,5.7949,5.7949,0,0,0,0,0,0,0,0,0,0,0,5.8023,5.8023,5.8023,5.8008,5.7979,5.7978,5.7949,5.7968,0,0,0,0,0,0,0,0,0,0,5.7995,5.8015,5.8023,5.8023,5.8008,5.7979,5.7978,5.7968,5.7967,5.7966,0,5.7969,0,5.7959,5.7947,5.7947,0,0,0,5.8002,5.8017,5.8003,5.8023,5.8007,5.7979,5.799,5.7967,5.7965,5.7964,5.7968,5.7967,5.7958,5.7947,5.7947,5.7966,5.7967,0,0,5.8004,5.8021,5.8005,5.8002,5.801,5.7991,5.7989,5.7966,5.7971,5.7968,5.7966,5.7958,5.7947,5.7947,5.7966,5.7966,0,0,0,5.8012,5.8022,5.8009,5.8004,5.7998,5.799,5.7988,5.7972,5.7967,5.7966,5.7957,5.7947,5.7947,5.7966,5.7966,5.8,0,0,0,5.8013,5.8027,5.801,5.802,5.7999,5.7985,5.7996,5.7969,5.7965,5.7957,5.7947,5.7947,5.7965,5.7966,5.7998,5.8012,0,0,0,5.8023,5.8028,5.8027,5.8021,5.801,5.7985,5.7978,5.7967,5.796,5.7947,5.7947,5.7965,5.7966,5.7996,5.8009,5.8021,0,0,0,5.8038,5.8056,5.8027,5.8044,5.801,5.8007,5.7978,5.7975,5.7968,5.7947,5.7965,5.7966,5.7996,5.8007,5.8019,5.8033,5.8041,0,0,5.807,5.806,5.8069,5.8042,5.8049,5.801,5.8021,5.7998,5.798,5.7971,5.7972,5.7998,5.8009,5.8021,5.8082,5.8088,0,0,0,5.8085,5.8091,5.8089,5.8084,5.8068,5.8055,5.8028,5.8019,5.8012,5.798,5.8006,5.8012,5.8018,5.8024,5.8029,5.8033,5.797,5.797,5.797,5.8152,5.8131,5.8143,5.8118,5.8114,5.8087,5.808,5.8064,5.8042,5.8049,5.8045,5.8085,5.8093,5.8097,5.8101,5.8052,5.8052,5.8052,5.8052,5.8196,5.8201,5.8173,5.8175,5.8152,5.8152,5.8127,5.8112,5.8108,5.8086,5.809,5.8066,5.8104,5.8107,5.8055,5.8054,5.8054,5.8054,5.8054,5.8236,5.8235,5.8226,5.8217,5.8212,5.8186,5.8184,5.8162,5.8142,5.8146,5.814,5.8139,5.8134,5.8145,5.8145,5.8146,5.8146,5.8146,5.8146,5.8281,5.827,5.8272,5.8258,5.8252,5.8241,5.8216,5.8209,5.8195,5.8179,5.8179,5.8156,5.8113,5.8102,5.8148,5.8147,5.8147,5.8147,5.8147,5.833,5.8316,5.8319,5.8314,5.8295,5.8291,5.8265,5.8253,5.8244,5.8244,5.822,5.8193,5.8181,5.8176,5.8166,5.8226,5.8226,5.8226,5.8226,5.8363,5.8356,5.8355,5.8347,5.8337,5.8314,5.8317,5.8297,5.8274,5.8266,5.8255,5.8241,5.8238,5.8227,5.8222,5.8212,5.8282,5.8282,5.8282,5.8392,5.8383,5.839,5.8369,5.8353,5.8339,5.8341,5.8331,5.8302,5.8284,5.826,5.8258,5.8235,5.8229,5.8208,5.82,5.8182,0,0]}]]